Location: *
(44.3683°N, 6.6958°E)
Time: 03:34:01
(UTC+00:00)

STARLINK-38 - Pass Details

Date: 14 October 2019
Orbit: 548 x 551 km, 53.0° (Epoch: 20 November)

Event Time Altitude Azimuth Distance (km) Brightness Sun altitude
Rises 17:33:25 0° 235° (SW) 2,705 8.3 -8.3°
Reaches altitude 10° 17:35:39 10° 236° (SW) 1,815 7.3 -8.7°
Maximum altitude 17:39:46 88° 318° (NW) 554 3.6 -9.4°
Drops below altitude 10° 17:43:56 10° 56° (NE) 1,826 5.8 -10.1°
Enters shadow 17:43:58 10° 56° (NE) 1,840 5.8 -10.2°
